Weather History for LLOV - November, 2012

Change the Weather History Date:

Sunday, November 18, 2012

  Actual Average Record
Temperature  
Mean Temperature 68 °F -  
Max Temperature 78 °F 65 °F 80 °F (2010)
Min Temperature 55 °F 46 °F 46 °F (2003)
Cooling Degree Days 2    
Growing Degree Days 18 (Base 50)    
Moisture  
Dew Point 42 °F    
Average Humidity 43    
Maximum Humidity 63    
Minimum Humidity 24    
Precipitation  
Precipitation 0.00 in - - ()
Sea Level Pressure  
Sea Level Pressure 29.94 in    
Wind  
Wind Speed 6 mph ()    
Max Wind Speed 23 mph    
Max Gust Speed 34 mph    
Visibility 6.1 miles    
Events Thunderstorm    
Averages and records for this station are not official NWS values.
T = Trace of Precipitation, MM = Missing Value Source: Averaged Metar Reports

Daily Weather History Graph

Daily Weather History Graph

Search for Another Location

Airport or City:

Trip Planner

Search our weather history database for the weather conditions in past years. The results will help you decide how hot, cold, wet, or windy it might be!

Date:

Astronomy

Nov. 18, 2012 Rise Set
Actual Time 6:07 AM IST 4:42 PM IST
Civil Twilight 5:42 AM IST 5:08 PM IST
Nautical Twilight 5:13 AM IST 5:37 PM IST
Astronomical Twilight 4:44 AM IST 6:05 PM IST
Moon 10:23 AM IST (11/18) 9:34 PM IST (11/18)
Length of Visible Light 11h 25m
Length of Day
10h 35m
Waxing Crescent, 27% of the Moon is Illuminated
Nov 18
Waxing Crescent
Nov 20
First Quarter
Nov 28
Full
Dec 6
Last Quarter
Dec 13
New

Hourly Weather History & Observations

Time (IST) Temp. Dew Point Humidity Pressure Visibility Wind Dir Wind Speed Gust Speed Precip Events Conditions
12:50 AM 62.6 °F 39.2 °F 42% 29.95 in - West 4.6 mph - N/A   Clear
1:50 AM 64.4 °F 39.2 °F 40% 29.92 in - WSW 5.8 mph - N/A   Clear
2:50 AM 64.4 °F 41.0 °F 42% 29.92 in - WSW 5.8 mph - N/A   Clear
3:50 AM 62.6 °F 39.2 °F 42% 29.92 in - West 5.8 mph - N/A   Clear
4:50 AM 59.0 °F 39.2 °F 48% 29.92 in - WSW 5.8 mph - N/A   Clear
5:50 AM 59.0 °F 39.2 °F 48% 29.92 in - West 5.8 mph - N/A   Clear
6:50 AM 57.2 °F 39.2 °F 51% 29.95 in - West 3.5 mph - N/A   Clear
7:50 AM 62.6 °F 39.2 °F 42% 29.95 in - Variable 1.2 mph - N/A   Clear
9:00 AM 68.0 °F 41.0 °F 37% 29.98 in - South 4.6 mph - N/A   Clear
9:50 AM 75.2 °F 46.4 °F 36% 30.01 in - Variable 1.2 mph - N/A   Clear
10:50 AM 75.2 °F 50.0 °F 41% 29.95 in - NE 4.6 mph - N/A   Clear
11:50 AM 78.8 °F 39.2 °F 24% 29.92 in 6.2 mi ENE 5.8 mph - N/A   Partly Cloudy
12:50 PM 77.0 °F 41.0 °F 28% 29.89 in 6.2 mi ENE 6.9 mph - N/A   Scattered Clouds
1:39 PM 77.0 °F 41.0 °F 28% 29.89 in 6.2 mi ENE 8.1 mph - N/A Thunderstorm Thunderstorm
1:50 PM 77.0 °F 41.0 °F 28% 29.89 in 6.2 mi ENE 6.9 mph - N/A Thunderstorm Thunderstorm
2:17 PM 68.0 °F 44.6 °F 43% 29.92 in 6.2 mi South 18.4 mph 31.1 mph N/A   Mostly Cloudy
2:30 PM 68.0 °F 44.6 °F 43% 29.92 in 5.6 mi South 23.0 mph 34.5 mph N/A   Mostly Cloudy
2:50 PM 68.0 °F 46.4 °F 46% 29.92 in 5.6 mi SSE 23.0 mph 34.5 mph N/A   Mostly Cloudy
3:20 PM 66.2 °F 44.6 °F 46% 29.92 in 6.2 mi SSE 17.3 mph - N/A   Mostly Cloudy
3:50 PM 68.0 °F 42.8 °F 40% 29.92 in 6.2 mi SSE 13.8 mph - N/A   Mostly Cloudy
4:50 PM 68.0 °F 42.8 °F 40% 29.95 in 6.2 mi East 8.1 mph - N/A   Scattered Clouds
5:50 PM 66.2 °F 42.8 °F 43% 29.95 in 6.2 mi ESE 6.9 mph - N/A   Partly Cloudy
6:50 PM 64.4 °F 42.8 °F 45% 29.98 in 6.2 mi Variable 1.2 mph - N/A   Partly Cloudy
7:50 PM 62.6 °F 44.6 °F 52% 29.98 in - Variable 1.2 mph - N/A   Clear
8:50 PM 60.8 °F 44.6 °F 55% 29.98 in - West 4.6 mph - N/A   Clear
9:50 PM 57.2 °F 44.6 °F 63% 29.98 in - West 2.3 mph - N/A   Clear
10:50 PM 57.2 °F 42.8 °F 59% 29.98 in - WSW 3.5 mph - N/A   Clear
11:50 PM 55.4 °F 42.8 °F 63% 29.98 in - WSW 4.6 mph - N/A   Clear